This is the latest recevied weather packets stored in our database for station/object N0KWA. If no packets are shown the sender has not sent any weather packets the latest 10 day(s).
| Time | Temp. | Humidity | Pressure | Rain* | Wind** | Luminosity | Snow |
|---|---|---|---|---|---|---|---|
| 1777821372 | 20° C | 60% | 1024.8 hPa | 0 mm | - | 21 W/m² | - |
| 1777821069 | 20° C | 58% | 1024.9 hPa | 0 mm | - | 89 W/m² | - |
| 1777820765 | 19.44° C | 56% | 1024.8 hPa | 0 mm | - | 75 W/m² | - |
| 1777820462 | 19.44° C | 58% | 1025 hPa | 0 mm | - | 233 W/m² | - |
| 1777820159 | 18.89° C | 63% | 1024.9 hPa | 0 mm | - | 40 W/m² | - |
| 1777819856 | 18.89° C | 63% | 1024.7 hPa | 0 mm | - | 39 W/m² | - |
| 1777819554 | 18.33° C | 72% | 1024.6 hPa | 0 mm | - | 18 W/m² | - |
| 1777819251 | 18.33° C | 73% | 1024.9 hPa | 0 mm | - | 17 W/m² | - |
| 1777818948 | 17.78° C | 75% | 1024.7 hPa | 0 mm | - | 19 W/m² | - |
| 1777818644 | 17.78° C | 68% | 1024.8 hPa | 0 mm | - | 16 W/m² | - |
| 1777818336 | 17.22° C | 77% | 1024.8 hPa | 0 mm | - | 16 W/m² | - |
| 1777818032 | 16.67° C | 70% | 1024.9 hPa | 0 mm | - | 15 W/m² | - |
| 1777817729 | 16.11° C | 84% | 1024.7 hPa | 0 mm | - | 15 W/m² | - |
| 1777817426 | 15.56° C | 88% | 1024.7 hPa | 0 mm | - | 14 W/m² | - |
| 1777817122 | 15° C | 85% | 1024.6 hPa | 0 mm | - | 14 W/m² | - |
| 1777816820 | 15° C | 92% | 1024.5 hPa | 0 mm | - | 14 W/m² | - |
| 1777816517 | 14.44° C | 91% | 1024.4 hPa | 0 mm | - | 13 W/m² | - |
| 1777816214 | 13.89° C | 95% | 1024.5 hPa | 0 mm | - | 13 W/m² | - |
| 1777815907 | 13.89° C | 98% | 1024.3 hPa | 0 mm | - | 18 W/m² | - |
| 1777815604 | 13.33° C | 99% | 1024.4 hPa | 0 mm | - | 13 W/m² | - |
| 1777815301 | 12.78° C | 99% | 1024.4 hPa | 0 mm | - | 24 W/m² | - |
| 1777814997 | 12.78° C | 99% | 1024.4 hPa | 0 mm | - | 31 W/m² | - |
| 1777814694 | 12.22° C | 99% | 1024.4 hPa | 0 mm | - | 10 W/m² | - |
| 1777814390 | 11.67° C | 99% | 1024.4 hPa | 0 mm | - | 10 W/m² | - |
| 1777814088 | 11.67° C | 99% | 1024.4 hPa | 0 mm | - | 10 W/m² | - |
* Rain latest hour (hover to see other rain measurements)
** Current wind speed in m/s (hover to see current wind gust speed)